Weather in Nilaveli

Sri Lanka     8°40′46″N   81°11′45″E
temp.,
°C
wind,
m/s
gust,
m/s
humid.,
%
clouds,
%
prec.,
mm/h
press.,
hPa
HPBL,
m
14 april, wed
wed1423:30+28se3474100 1.1 1012528
02:30+28s227598 0.0 1010541
05:30+27ssw228199 0.3 1010373
08:30+28s338031 0.0 1013456
11:30+28ese338019 0.0 1012496
14:30+29e547244 0.1 1008592
17:30+29ese4472100 0.1 1009590
20:30+28se4476100 2.4 1011286
15 april, thu
thu1523:30+28s4475100 2.9 1011499
02:30+27sw3379100 2.7 1009174
05:30+27sw3379100 3.8 1010327
08:30+27wsw228086 0.0 1013280
11:30+29n117090 0.9 1012294
14:30+29nne3370100 1.5 1008368
17:30+28n3375100 6.1 1009177
20:30+26sw5587100 3.3 1011253
16 april, fri
fri1623:30+25sw2383100 4.1 1010158
02:30+26ssw3374100 0.1 1009209
05:30+26sw4479100 0.1 1010266
08:30+27wsw3377100 0.0 1012304
11:30+29ese216682 0.0 1011362
14:30+30ese44667 0.0 1008469
17:30+29se667284 0.0 1008327
20:30+29sse4472100 1.9 1011480
17 april, sat
sat1723:30+28ssw337790 1.9 1011354
02:30+27wsw348143 0.0 1009245
05:30+27sw458493 0.0 1010257
08:30+28sw457826 0.0 1012387
11:30+30se43685 0.0 1011441
14:30+29e667312 0.0 1008288
17:30+30ese337362 0.3 1009428
20:30+29sse1272100 2.0 1012140
18 april, sun
sun1823:30+28wsw578148 2.1 1012323
02:30+27wsw698312 0.0 1010405
05:30+27wsw6118549 0.0 1011485
08:30+28sw587785 0.0 1013621
11:30+31s346616 0.0 1011278
14:30+30ese757020 0.0 1008499
17:30+30wnw2271100 3.4 100966
20:30+30ssw587298 0.5 1012562